Location: Newark
(40.9833°N, 0.0333°W)
Time: 00:17:27
(UTC+00:00)

Altair - Pass Details

Date: 30 October 2020
Orbit: 1502 x 1682 km, 47.2° (Epoch: 02 December)

Event Time Altitude Azimuth Distance (km) Brightness Sun altitude
Rises 02:57:22 0° 203° (SSW) 4,620 - -40.1°
Reaches altitude 10° 03:00:40 10° 195° (SSW) 3,645 - -39.5°
Exits shadow 03:06:28 32° 160° (SSE) 2,372 8.4 -38.5°
Maximum altitude 03:08:43 36° 133° (SE) 2,237 8.4 -38.1°
Drops below altitude 10° 03:16:57 10° 71° (ENE) 3,735 10.3 -36.6°
Sets 03:20:21 0° 64° (ENE) 4,747 11.0 -35.9°
